"read_dt","SO2 (ppb)","flags","PMT voltage (V)","lamp voltage (V)","lamp intensity (Hz)","internal temp (C)","react chamber temp (C)","sample flow (l/min)","pres (mmHg)","SO2 bkg (ppb)","SO2 coefficient"
2015-09-06 00:00:00,2298E-3,5C000400,-0724,0820,12330,028.6,045.5,0.255,756.4,01.16,0.508
2015-09-06 00:01:00,2257E-3,5C000400,-0724,0821,12287,028.5,045.5,0.256,756.4,01.16,0.508
2015-09-06 00:02:00,2260E-3,5C000400,-0724,0820,12255,028.5,045.5,0.255,756.4,01.16,0.508
2015-09-06 00:03:00,2325E-3,5C000400,-0724,0820,12339,028.6,045.5,0.255,756.4,01.16,0.508
2015-09-06 00:04:00,2254E-3,5C000400,-0724,0820,12227,028.5,045.5,0.255,756.4,01.16,0.508
2015-09-06 00:05:00,2228E-3,5C000400,-0724,0821,12450,028.5,045.5,0.256,756.4,01.16,0.508
2015-09-06 00:06:00,2163E-3,5C000400,-0724,0821,12326,028.6,045.5,0.256,756.4,01.16,0.508
2015-09-06 00:07:00,2191E-3,5C000400,-0724,0821,12194,028.5,045.5,0.256,756.4,01.16,0.508
2015-09-06 00:08:00,2240E-3,5C000400,-0724,0821,12249,028.6,045.5,0.256,756.4,01.16,0.508
2015-09-06 00:09:00,2317E-3,5C000400,-0724,0821,12253,028.6,045.5,0.255,756.4,01.16,0.508
2015-09-06 00:10:00,2243E-3,5C000400,-0724,0820,12260,028.5,045.5,0.255,756.4,01.16,0.508
2015-09-06 00:11:00,2279E-3,5C000400,-0724,0820,12236,028.6,045.5,0.255,756.4,01.16,0.508
2015-09-06 00:12:00,2287E-3,5C000400,-0724,0821,12304,028.5,045.5,0.256,756.4,01.16,0.508
2015-09-06 00:13:00,2222E-3,5C000400,-0724,0820,12267,028.5,045.5,0.255,756.4,01.16,0.508
2015-09-06 00:14:00,2310E-3,5C000400,-0724,0821,12299,028.6,045.5,0.255,756.4,01.16,0.508
2015-09-06 00:15:00,2295E-3,5C000400,-0724,0820,12317,028.5,045.5,0.255,756.4,01.16,0.508
2015-09-06 00:16:00,2261E-3,5C000400,-0724,0820,12329,028.6,045.5,0.256,756.4,01.16,0.508
2015-09-06 00:17:00,2158E-3,5C000400,-0724,0821,12101,028.5,045.5,0.256,756.4,01.16,0.508
2015-09-06 00:18:00,2120E-3,5C000400,-0724,0821,12429,028.6,045.5,0.255,756.4,01.16,0.508
2015-09-06 00:19:00,2302E-3,5C000400,-0724,0822,12278,028.5,045.5,0.255,756.5,01.16,0.508
2015-09-06 00:20:00,2296E-3,5C000400,-0724,0821,12205,028.5,045.5,0.255,756.5,01.16,0.508
2015-09-06 00:21:00,2198E-3,5C000400,-0724,0820,12256,028.5,045.5,0.256,756.5,01.16,0.508
2015-09-06 00:22:00,2168E-3,5C000400,-0724,0820,12192,028.5,045.5,0.255,756.5,01.16,0.508
2015-09-06 00:23:00,2341E-3,5C000400,-0724,0820,12018,028.6,045.5,0.255,756.5,01.16,0.508
2015-09-06 00:24:00,2249E-3,5C000400,-0724,0820,12245,028.5,045.5,0.255,756.5,01.16,0.508
2015-09-06 00:25:00,2194E-3,5C000400,-0724,0820,12367,028.5,045.5,0.256,756.5,01.16,0.508
2015-09-06 00:26:00,2181E-3,5C000400,-0724,0821,12280,028.5,045.5,0.255,756.4,01.16,0.508
2015-09-06 00:27:00,2260E-3,5C000400,-0724,0821,12240,028.5,045.5,0.255,756.5,01.16,0.508
2015-09-06 00:28:00,2413E-3,5C000400,-0724,0821,12283,028.5,045.5,0.255,756.5,01.16,0.508
2015-09-06 00:29:00,2161E-3,5C000400,-0724,0822,12242,028.5,045.5,0.256,756.5,01.16,0.508
2015-09-06 00:30:00,2166E-3,5C000400,-0724,0821,12140,028.5,045.5,0.255,756.5,01.16,0.508
2015-09-06 00:31:00,2277E-3,5C000400,-0724,0821,12249,028.5,045.5,0.255,756.5,01.16,0.508
2015-09-06 00:32:00,2234E-3,5C000400,-0724,0821,12345,028.5,045.5,0.255,756.5,01.16,0.508
2015-09-06 00:33:00,2307E-3,5C000400,-0724,0820,12305,028.5,045.5,0.255,756.5,01.16,0.508
2015-09-06 00:34:00,2172E-3,5C000400,-0724,0821,12278,028.5,045.5,0.256,756.5,01.16,0.508
2015-09-06 00:35:00,2274E-3,5C000400,-0724,0821,12368,028.5,045.5,0.255,756.5,01.16,0.508
2015-09-06 00:36:00,2384E-3,5C000400,-0724,0820,12306,028.5,045.5,0.255,756.5,01.16,0.508
2015-09-06 00:37:00,2189E-3,5C000400,-0724,0821,12225,028.5,045.5,0.255,756.5,01.16,0.508
2015-09-06 00:38:00,2334E-3,5C000400,-0724,0820,12326,028.5,045.5,0.256,756.5,01.16,0.508
2015-09-06 00:39:00,2283E-3,5C000400,-0724,0821,12309,028.5,045.5,0.255,756.6,01.16,0.508
2015-09-06 00:40:00,2292E-3,5C000400,-0724,0821,12185,028.5,045.5,0.255,756.6,01.16,0.508
2015-09-06 00:41:00,2240E-3,5C000400,-0724,0821,12220,028.5,045.5,0.255,756.6,01.16,0.508
2015-09-06 00:42:00,2232E-3,5C000400,-0724,0821,12274,028.5,045.4,0.256,756.6,01.16,0.508
2015-09-06 00:43:00,2287E-3,5C000400,-0724,0821,12173,028.5,045.5,0.255,756.6,01.16,0.508
2015-09-06 00:44:00,2260E-3,5C000400,-0724,0821,12276,028.5,045.5,0.255,756.6,01.16,0.508
2015-09-06 00:45:00,2293E-3,5C000400,-0724,0821,12179,028.5,045.5,0.255,756.6,01.16,0.508
2015-09-06 00:46:00,2167E-3,5C000400,-0724,0820,12187,028.5,045.5,0.256,756.6,01.16,0.508
2015-09-06 00:47:00,2223E-3,5C000400,-0724,0821,12141,028.5,045.5,0.255,756.6,01.16,0.508
2015-09-06 00:48:00,2146E-3,5C000400,-0724,0820,12248,028.5,045.5,0.255,756.6,01.16,0.508
2015-09-06 00:49:00,2347E-3,5C000400,-0724,0821,12310,028.5,045.5,0.255,756.6,01.16,0.508
2015-09-06 00:50:00,2185E-3,5C000400,-0724,0821,12377,028.5,045.5,0.256,756.6,01.16,0.508
2015-09-06 00:51:00,2263E-3,5C000400,-0724,0820,12292,028.5,045.5,0.256,756.6,01.16,0.508
2015-09-06 00:52:00,2333E-3,5C000400,-0724,0821,12352,028.5,045.5,0.255,756.6,01.16,0.508
2015-09-06 00:53:00,2235E-3,5C000400,-0724,0820,12269,028.5,045.5,0.255,756.6,01.16,0.508
2015-09-06 00:54:00,2295E-3,5C000400,-0724,0821,12180,028.5,045.5,0.256,756.6,01.16,0.508
2015-09-06 00:55:00,2311E-3,5C000400,-0724,0820,12230,028.5,045.5,0.256,756.6,01.16,0.508
2015-09-06 00:56:00,2276E-3,5C000400,-0724,0821,12509,028.5,045.5,0.255,756.6,01.16,0.508
2015-09-06 00:57:00,2265E-3,5C000400,-0724,0821,12380,028.5,045.5,0.255,756.6,01.16,0.508
2015-09-06 00:58:00,2285E-3,5C000400,-0724,0820,12283,028.5,045.5,0.255,756.6,01.16,0.508
2015-09-06 00:59:00,2464E-3,5C000400,-0724,0821,12309,028.5,045.5,0.256,756.6,01.16,0.508
2015-09-06 01:00:00,2220E-3,5C000400,-0724,0822,12396,028.5,045.5,0.256,756.6,01.16,0.508
2015-09-06 01:01:00,2236E-3,5C000400,-0724,0822,12315,028.5,045.5,0.255,756.6,01.16,0.508
2015-09-06 01:02:00,2355E-3,5C000400,-0724,0821,12211,028.5,045.5,0.255,756.6,01.16,0.508
2015-09-06 01:03:00,2249E-3,5C000400,-0724,0821,12204,028.5,045.5,0.256,756.6,01.16,0.508
2015-09-06 01:04:00,2208E-3,5C000400,-0724,0821,12303,028.5,045.5,0.255,756.7,01.16,0.508
2015-09-06 01:05:00,2379E-3,5C000400,-0724,0820,12316,028.5,045.5,0.255,756.7,01.16,0.508
2015-09-06 01:06:00,2300E-3,5C000400,-0724,0820,12355,028.5,045.5,0.256,756.6,01.16,0.508
2015-09-06 01:07:00,2302E-3,5C000400,-0724,0820,12272,028.5,045.5,0.256,756.6,01.16,0.508
2015-09-06 01:08:00,2227E-3,5C000400,-0724,0821,12186,028.5,045.5,0.255,756.6,01.16,0.508
2015-09-06 01:09:00,2249E-3,5C000400,-0724,0820,12274,028.5,045.4,0.255,756.7,01.16,0.508
2015-09-06 01:10:00,2244E-3,5C000400,-0724,0821,12227,028.5,045.5,0.256,756.7,01.16,0.508
2015-09-06 01:11:00,2259E-3,5C000400,-0724,0821,12269,028.5,045.5,0.256,756.7,01.16,0.508
2015-09-06 01:12:00,2273E-3,5C000400,-0724,0820,12289,028.5,045.5,0.256,756.7,01.16,0.508
2015-09-06 01:13:00,2234E-3,5C000400,-0724,0821,12337,028.5,045.5,0.255,756.7,01.16,0.508
2015-09-06 01:14:00,2154E-3,5C000400,-0724,0821,12154,028.5,045.5,0.255,756.7,01.16,0.508
2015-09-06 01:15:00,2283E-3,5C000400,-0724,0821,12165,028.5,045.4,0.256,756.7,01.16,0.508
2015-09-06 01:16:00,2272E-3,5C000400,-0724,0820,12395,028.5,045.5,0.256,756.7,01.16,0.508
2015-09-06 01:17:00,2195E-3,5C000400,-0724,0820,12209,028.5,045.5,0.255,756.8,01.16,0.508
2015-09-06 01:18:00,2360E-3,5C000400,-0724,0820,12330,028.5,045.5,0.255,756.7,01.16,0.508
2015-09-06 01:19:00,2224E-3,5C000400,-0724,0821,12290,028.5,045.5,0.256,756.7,01.16,0.508
2015-09-06 01:20:00,2365E-3,5C000400,-0724,0820,12207,028.5,045.5,0.256,756.7,01.16,0.508
2015-09-06 01:21:00,2432E-3,5C000400,-0724,0821,12056,028.5,045.5,0.255,756.7,01.16,0.508
2015-09-06 01:22:00,2335E-3,5C000400,-0724,0821,12299,028.5,045.5,0.255,756.7,01.16,0.508
2015-09-06 01:23:00,2147E-3,5C000400,-0724,0820,12290,028.5,045.5,0.256,756.8,01.16,0.508
2015-09-06 01:24:00,2293E-3,5C000400,-0724,0819,12371,028.5,045.5,0.256,756.8,01.16,0.508
2015-09-06 01:25:00,2160E-3,5C000400,-0724,0820,12257,028.5,045.5,0.255,756.8,01.16,0.508
2015-09-06 01:26:00,2330E-3,5C000400,-0724,0819,12309,028.5,045.5,0.255,756.8,01.16,0.508
2015-09-06 01:27:00,2257E-3,5C000400,-0724,0820,12339,028.5,045.5,0.256,756.8,01.16,0.508
2015-09-06 01:28:00,2276E-3,5C000400,-0724,0821,12317,028.5,045.5,0.256,756.8,01.16,0.508
2015-09-06 01:29:00,2139E-3,5C000400,-0724,0820,12223,028.5,045.5,0.255,756.8,01.16,0.508
2015-09-06 01:30:00,2140E-3,5C000400,-0724,0820,12378,028.5,045.5,0.255,756.8,01.16,0.508
2015-09-06 01:31:00,2275E-3,5C000400,-0724,0821,12224,028.5,045.5,0.256,756.8,01.16,0.508
2015-09-06 01:32:00,2280E-3,5C000400,-0724,0820,12306,028.4,045.5,0.256,756.8,01.16,0.508
2015-09-06 01:33:00,2257E-3,5C000400,-0724,0821,12346,028.5,045.5,0.255,756.8,01.16,0.508
2015-09-06 01:34:00,2284E-3,5C000400,-0724,0821,12241,028.5,045.5,0.255,756.8,01.16,0.508
2015-09-06 01:35:00,2172E-3,5C000400,-0724,0820,12284,028.5,045.5,0.256,756.8,01.16,0.508
2015-09-06 01:36:00,2253E-3,5C000400,-0724,0820,12372,028.5,045.5,0.256,756.8,01.16,0.508
2015-09-06 01:37:00,2154E-3,5C000400,-0724,0820,12218,028.5,045.5,0.255,756.8,01.16,0.508
2015-09-06 01:38:00,2299E-3,5C000400,-0724,0820,12262,028.5,045.5,0.255,756.8,01.16,0.508
2015-09-06 01:39:00,2232E-3,5C000400,-0724,0821,12314,028.5,045.5,0.256,756.8,01.16,0.508
2015-09-06 01:40:00,2167E-3,5C000400,-0724,0820,12330,028.5,045.5,0.256,756.8,01.16,0.508
2015-09-06 01:41:00,2219E-3,5C000400,-0724,0821,12329,028.5,045.5,0.255,756.8,01.16,0.508
2015-09-06 01:42:00,2223E-3,5C000400,-0724,0820,12222,028.5,045.5,0.256,756.8,01.16,0.508
2015-09-06 01:43:00,2311E-3,5C000400,-0724,0821,12249,028.5,045.5,0.256,756.8,01.16,0.508
2015-09-06 01:44:00,2372E-3,5C000400,-0724,0821,12215,028.5,045.5,0.256,756.8,01.16,0.508
2015-09-06 01:45:00,2186E-3,5C000400,-0724,0821,12366,028.4,045.5,0.255,756.8,01.16,0.508
2015-09-06 01:46:00,2407E-3,5C000400,-0724,0820,12151,028.4,045.5,0.256,756.8,01.16,0.508
2015-09-06 01:47:00,2294E-3,5C000400,-0724,0820,12275,028.5,045.5,0.256,756.8,01.16,0.508
2015-09-06 01:48:00,2310E-3,5C000400,-0724,0820,12315,028.4,045.5,0.255,756.8,01.16,0.508
2015-09-06 01:49:00,2229E-3,5C000400,-0724,0820,12364,028.5,045.5,0.255,756.8,01.16,0.508
2015-09-06 01:50:00,2187E-3,5C000400,-0724,0821,12356,028.5,045.5,0.256,756.8,01.16,0.508
2015-09-06 01:51:00,2280E-3,5C000400,-0724,0820,12271,028.4,045.5,0.256,756.8,01.16,0.508
2015-09-06 01:52:00,2169E-3,5C000400,-0724,0820,12247,028.4,045.5,0.255,756.8,01.16,0.508
2015-09-06 01:53:00,2248E-3,5C000400,-0724,0820,12210,028.4,045.5,0.256,756.8,01.16,0.508
2015-09-06 01:54:00,2177E-3,5C000400,-0724,0820,12024,028.4,045.5,0.256,756.8,01.16,0.508
2015-09-06 01:55:00,2192E-3,5C000400,-0724,0821,12172,028.4,045.5,0.256,756.8,01.16,0.508
2015-09-06 01:56:00,2198E-3,5C000400,-0724,0821,12272,028.4,045.5,0.255,756.8,01.16,0.508
2015-09-06 01:57:00,2152E-3,5C000400,-0724,0820,12324,028.5,045.4,0.256,756.8,01.16,0.508
2015-09-06 01:58:00,2331E-3,5C000400,-0724,0821,12252,028.5,045.5,0.256,756.8,01.16,0.508
2015-09-06 01:59:00,2326E-3,5C000400,-0724,0821,12266,028.5,045.5,0.255,756.8,01.16,0.508
2015-09-06 02:00:00,2274E-3,5C000400,-0724,0821,12246,028.4,045.5,0.255,756.8,01.16,0.508
2015-09-06 02:01:00,2272E-3,5C000400,-0724,0820,12269,028.4,045.5,0.256,756.8,01.16,0.508
2015-09-06 02:02:00,2204E-3,5C000400,-0724,0821,12242,028.4,045.5,0.256,756.8,01.16,0.508
2015-09-06 02:03:00,2322E-3,5C000400,-0724,0820,12388,028.4,045.5,0.255,756.8,01.16,0.508
2015-09-06 02:04:00,2352E-3,5C000400,-0724,0820,12148,028.5,045.5,0.256,756.8,01.16,0.508
2015-09-06 02:05:00,2204E-3,5C000400,-0724,0820,12219,028.4,045.5,0.256,756.8,01.16,0.508
2015-09-06 02:06:00,2250E-3,5C000400,-0724,0820,12230,028.5,045.5,0.256,756.8,01.16,0.508
2015-09-06 02:07:00,2241E-3,5C000400,-0724,0821,12201,028.5,045.5,0.256,756.7,01.16,0.508
2015-09-06 02:08:00,2214E-3,5C000400,-0724,0820,12333,028.4,045.4,0.256,756.7,01.16,0.508
2015-09-06 02:09:00,2223E-3,5C000400,-0724,0820,12250,028.4,045.5,0.256,756.8,01.16,0.508
2015-09-06 02:10:00,2287E-3,5C000400,-0724,0820,12128,028.4,045.5,0.255,756.8,01.16,0.508
2015-09-06 02:11:00,2334E-3,5C000400,-0724,0821,12276,028.5,045.5,0.256,756.8,01.16,0.508
2015-09-06 02:12:00,2074E-3,5C000400,-0724,0820,12273,028.5,045.5,0.256,756.8,01.16,0.508
2015-09-06 02:13:00,2171E-3,5C000400,-0724,0820,12263,028.5,045.5,0.255,756.8,01.16,0.508
2015-09-06 02:14:00,2295E-3,5C000400,-0724,0821,12279,028.4,045.5,0.255,756.8,01.16,0.508
2015-09-06 02:15:00,2460E-3,5C000400,-0724,0820,12406,028.4,045.5,0.256,756.8,01.16,0.508
2015-09-06 02:16:00,2346E-3,5C000400,-0724,0819,12360,028.4,045.5,0.256,756.8,01.16,0.508
2015-09-06 02:17:00,2147E-3,5C000400,-0724,0821,12536,028.4,045.5,0.255,756.8,01.16,0.508
2015-09-06 02:18:00,2233E-3,5C000400,-0724,0820,12113,028.4,045.5,0.256,756.8,01.16,0.508
2015-09-06 02:19:00,2315E-3,5C000400,-0724,0821,12258,028.5,045.5,0.256,756.8,01.16,0.508
2015-09-06 02:20:00,2385E-3,5C000400,-0724,0821,12365,028.5,045.5,0.255,756.8,01.16,0.508
2015-09-06 02:21:00,2161E-3,5C000400,-0724,0820,12186,028.5,045.5,0.255,756.8,01.16,0.508
2015-09-06 02:22:00,2390E-3,5C000400,-0724,0821,12179,028.5,045.5,0.256,756.8,01.16,0.508
2015-09-06 02:23:00,2280E-3,5C000400,-0724,0820,12398,028.4,045.5,0.256,756.8,01.16,0.508
2015-09-06 02:24:00,2392E-3,5C000400,-0724,0820,12254,028.4,045.5,0.255,756.8,01.16,0.508
2015-09-06 02:25:00,2249E-3,5C000400,-0724,0820,12270,028.5,045.5,0.256,756.8,01.16,0.508
2015-09-06 02:26:00,2298E-3,5C000400,-0724,0820,12233,028.4,045.5,0.256,756.8,01.16,0.508
2015-09-06 02:27:00,2399E-3,5C000400,-0724,0821,12228,028.4,045.5,0.255,756.8,01.16,0.508
2015-09-06 02:28:00,2371E-3,5C000400,-0724,0820,12264,028.5,045.5,0.255,756.8,01.16,0.508
2015-09-06 02:29:00,2203E-3,5C000400,-0724,0821,12335,028.4,045.5,0.256,756.8,01.16,0.508
2015-09-06 02:30:00,2290E-3,5C000400,-0724,0819,12378,028.4,045.5,0.255,756.8,01.16,0.508
2015-09-06 02:31:00,2387E-3,5C000400,-0724,0820,12232,028.5,045.5,0.255,756.8,01.16,0.508
2015-09-06 02:32:00,2466E-3,5C000400,-0724,0820,12303,028.4,045.5,0.256,756.8,01.16,0.508
2015-09-06 02:33:00,2166E-3,5C000400,-0724,0821,12136,028.4,045.5,0.256,756.8,01.16,0.508
2015-09-06 02:34:00,2203E-3,5C000400,-0724,0821,12307,028.4,045.5,0.255,756.8,01.16,0.508
2015-09-06 02:35:00,2379E-3,5C000400,-0724,0821,12283,028.4,045.5,0.256,756.8,01.16,0.508
2015-09-06 02:36:00,2278E-3,5C000400,-0724,0821,12183,028.4,045.5,0.256,756.8,01.16,0.508
2015-09-06 02:37:00,2138E-3,5C000400,-0724,0821,12313,028.4,045.4,0.255,756.9,01.16,0.508
2015-09-06 02:38:00,2150E-3,5C000400,-0724,0821,12235,028.4,045.4,0.256,756.9,01.16,0.508
2015-09-06 02:39:00,2153E-3,5C000400,-0724,0820,12155,028.4,045.5,0.256,756.9,01.16,0.508
2015-09-06 02:40:00,2219E-3,5C000400,-0724,0820,12293,028.4,045.5,0.255,756.9,01.16,0.508
2015-09-06 02:41:00,2417E-3,5C000400,-0724,0820,12348,028.4,045.5,0.256,756.9,01.16,0.508
2015-09-06 02:42:00,2321E-3,5C000400,-0724,0820,12290,028.4,045.5,0.256,756.9,01.16,0.508
2015-09-06 02:43:00,2195E-3,5C000400,-0724,0820,12360,028.4,045.5,0.255,756.9,01.16,0.508
2015-09-06 02:44:00,2269E-3,5C000400,-0724,0821,12253,028.4,045.4,0.256,756.9,01.16,0.508
2015-09-06 02:45:00,2198E-3,5C000400,-0724,0820,12212,028.4,045.4,0.256,756.9,01.16,0.508
2015-09-06 02:46:00,2170E-3,5C000400,-0724,0821,12121,028.4,045.5,0.255,756.9,01.16,0.508
2015-09-06 02:47:00,2355E-3,5C000400,-0724,0821,12363,028.4,045.5,0.255,756.9,01.16,0.508
2015-09-06 02:48:00,2267E-3,5C000400,-0724,0820,12202,028.4,045.5,0.256,756.9,01.16,0.508
2015-09-06 02:49:00,2188E-3,5C000400,-0724,0821,12299,028.4,045.5,0.256,756.9,01.16,0.508
2015-09-06 02:50:00,2245E-3,5C000400,-0724,0821,12390,028.4,045.5,0.255,756.9,01.16,0.508
2015-09-06 02:51:00,2214E-3,5C000400,-0724,0821,12379,028.4,045.5,0.256,756.9,01.16,0.508
2015-09-06 02:52:00,2293E-3,5C000400,-0724,0820,12254,028.4,045.5,0.256,756.9,01.16,0.508
2015-09-06 02:53:00,2193E-3,5C000400,-0724,0821,12228,028.4,045.5,0.255,756.9,01.16,0.508
2015-09-06 02:54:00,2232E-3,5C000400,-0724,0821,12286,028.4,045.5,0.256,756.9,01.16,0.508
2015-09-06 02:55:00,2282E-3,5C000400,-0724,0821,12204,028.4,045.5,0.256,756.9,01.16,0.508
2015-09-06 02:56:00,2398E-3,5C000400,-0724,0821,12268,028.4,045.5,0.255,756.9,01.16,0.508
2015-09-06 02:57:00,2292E-3,5C000400,-0724,0820,12293,028.4,045.5,0.256,756.9,01.16,0.508
2015-09-06 02:58:00,2355E-3,5C000400,-0724,0820,12355,028.4,045.5,0.256,756.9,01.16,0.508
2015-09-06 02:59:00,2234E-3,5C000400,-0724,0821,12322,028.4,045.5,0.256,756.9,01.16,0.508
2015-09-06 03:00:00,2088E-3,5C000400,-0724,0820,12275,028.4,045.5,0.255,756.9,01.16,0.508
2015-09-06 03:01:00,2374E-3,5C000400,-0724,0821,12343,028.4,045.5,0.256,756.9,01.16,0.508
2015-09-06 03:02:00,2389E-3,5C000400,-0724,0820,12277,028.4,045.5,0.256,756.9,01.16,0.508
2015-09-06 03:03:00,2381E-3,5C000400,-0724,0821,12424,028.4,045.4,0.256,756.9,01.16,0.508
2015-09-06 03:04:00,2202E-3,5C000400,-0724,0820,12296,028.4,045.4,0.256,756.9,01.16,0.508
2015-09-06 03:05:00,2314E-3,5C000400,-0724,0820,12337,028.4,045.5,0.256,756.9,01.16,0.508
2015-09-06 03:06:00,2255E-3,5C000400,-0724,0820,12256,028.4,045.5,0.256,756.9,01.16,0.508
2015-09-06 03:07:00,2331E-3,5C000400,-0724,0820,12131,028.4,045.4,0.256,756.9,01.16,0.508
2015-09-06 03:08:00,2208E-3,5C000400,-0724,0820,12362,028.4,045.5,0.256,756.9,01.16,0.508
2015-09-06 03:09:00,2278E-3,5C000400,-0724,0820,12376,028.4,045.5,0.256,757.0,01.16,0.508
2015-09-06 03:10:00,2175E-3,5C000400,-0724,0820,12298,028.5,045.5,0.256,757.0,01.16,0.508
2015-09-06 03:11:00,2209E-3,5C000400,-0724,0820,12281,028.4,045.5,0.255,757.0,01.16,0.508
2015-09-06 03:12:00,2210E-3,5C000400,-0724,0820,12271,028.4,045.5,0.256,757.0,01.16,0.508
2015-09-06 03:13:00,2276E-3,5C000400,-0724,0820,12266,028.4,045.5,0.256,757.0,01.16,0.508
2015-09-06 03:14:00,2187E-3,5C000400,-0724,0820,12291,028.4,045.4,0.255,757.0,01.16,0.508
2015-09-06 03:15:00,2284E-3,5C000400,-0724,0821,12204,028.4,045.5,0.256,756.9,01.16,0.508
2015-09-06 03:16:00,2352E-3,5C000400,-0724,0820,12306,028.4,045.5,0.256,757.0,01.16,0.508
2015-09-06 03:17:00,2353E-3,5C000400,-0724,0820,12261,028.4,045.5,0.255,757.0,01.16,0.508
2015-09-06 03:18:00,2253E-3,5C000400,-0724,0820,12235,028.4,045.5,0.256,757.0,01.16,0.508
2015-09-06 03:19:00,2259E-3,5C000400,-0724,0820,12203,028.4,045.5,0.256,757.0,01.16,0.508
2015-09-06 03:20:00,2259E-3,5C000400,-0724,0820,12218,028.4,045.5,0.255,757.0,01.16,0.508
2015-09-06 03:21:00,2144E-3,5C000400,-0724,0821,12256,028.4,045.5,0.256,757.0,01.16,0.508
2015-09-06 03:22:00,2334E-3,5C000400,-0724,0821,12286,028.4,045.4,0.256,757.0,01.16,0.508
2015-09-06 03:23:00,2107E-3,5C000400,-0724,0821,12318,028.4,045.5,0.255,757.0,01.16,0.508
2015-09-06 03:24:00,2206E-3,5C000400,-0724,0821,12258,028.4,045.5,0.256,757.0,01.16,0.508
2015-09-06 03:25:00,2257E-3,5C000400,-0724,0821,12311,028.4,045.5,0.256,757.0,01.16,0.508
2015-09-06 03:26:00,2180E-3,5C000400,-0724,0821,12329,028.4,045.5,0.255,756.9,01.16,0.508
2015-09-06 03:27:00,2285E-3,5C000400,-0724,0821,12304,028.4,045.4,0.256,756.9,01.16,0.508
2015-09-06 03:28:00,2304E-3,5C000400,-0724,0820,12134,028.4,045.5,0.256,757.0,01.16,0.508
2015-09-06 03:29:00,2390E-3,5C000400,-0724,0820,12275,028.4,045.5,0.255,757.0,01.16,0.508
2015-09-06 03:30:00,2378E-3,5C000400,-0724,0820,12265,028.4,045.5,0.256,757.0,01.16,0.508
2015-09-06 03:31:00,2153E-3,5C000400,-0724,0821,12214,028.4,045.5,0.256,757.0,01.16,0.508
2015-09-06 03:32:00,2231E-3,5C000400,-0724,0820,12255,028.4,045.5,0.255,757.0,01.16,0.508
2015-09-06 03:33:00,2288E-3,5C000400,-0724,0821,12416,028.4,045.5,0.256,757.0,01.16,0.508
2015-09-06 03:34:00,2223E-3,5C000400,-0724,0820,12208,028.4,045.5,0.256,757.0,01.16,0.508
2015-09-06 03:35:00,2355E-3,5C000400,-0724,0820,12200,028.4,045.5,0.255,757.1,01.16,0.508
2015-09-06 03:36:00,2152E-3,5C000400,-0724,0820,12258,028.4,045.4,0.256,757.1,01.16,0.508
2015-09-06 03:37:00,2354E-3,5C000400,-0724,0821,12230,028.4,045.4,0.256,757.1,01.16,0.508
2015-09-06 03:38:00,2202E-3,5C000400,-0724,0820,12296,028.4,045.5,0.256,757.1,01.16,0.508
2015-09-06 03:39:00,2327E-3,5C000400,-0724,0820,12284,028.4,045.5,0.256,757.0,01.16,0.508
2015-09-06 03:40:00,2230E-3,5C000400,-0724,0821,12338,028.4,045.5,0.256,757.1,01.16,0.508
2015-09-06 03:41:00,2204E-3,5C000400,-0724,0821,12343,028.4,045.5,0.256,757.0,01.16,0.508
2015-09-06 03:42:00,2146E-3,5C000400,-0724,0821,12211,028.4,045.5,0.256,757.0,01.16,0.508
2015-09-06 03:43:00,2163E-3,5C000400,-0724,0821,12112,028.4,045.5,0.256,757.1,01.16,0.508
2015-09-06 03:44:00,2347E-3,5C000400,-0724,0821,12268,028.4,045.5,0.256,757.1,01.16,0.508
2015-09-06 03:45:00,2262E-3,5C000400,-0724,0821,12268,028.4,045.5,0.255,757.1,01.16,0.508
2015-09-06 03:46:00,2368E-3,5C000400,-0724,0822,12200,028.4,045.5,0.256,757.1,01.16,0.508
2015-09-06 03:47:00,2372E-3,5C000400,-0724,0820,12295,028.4,045.5,0.256,757.1,01.16,0.508
2015-09-06 03:48:00,2208E-3,5C000400,-0724,0821,12281,028.4,045.5,0.255,757.1,01.16,0.508
2015-09-06 03:49:00,2281E-3,5C000400,-0724,0820,12380,028.4,045.5,0.256,757.1,01.16,0.508
2015-09-06 03:50:00,2240E-3,5C000400,-0724,0820,12267,028.4,045.5,0.256,757.1,01.16,0.508
2015-09-06 03:51:00,2202E-3,5C000400,-0724,0820,12305,028.4,045.5,0.255,757.1,01.16,0.508
2015-09-06 03:52:00,2192E-3,5C000400,-0724,0821,12278,028.3,045.5,0.256,757.1,01.16,0.508
2015-09-06 03:53:00,2161E-3,5C000400,-0724,0820,12343,028.3,045.5,0.256,757.1,01.16,0.508
2015-09-06 03:54:00,2231E-3,5C000400,-0724,0820,12234,028.3,045.5,0.255,757.1,01.16,0.508
2015-09-06 03:55:00,2363E-3,5C000400,-0724,0820,12398,028.3,045.5,0.256,757.1,01.16,0.508
2015-09-06 03:56:00,2336E-3,5C000400,-0724,0821,12264,028.2,045.5,0.256,757.1,01.16,0.508
2015-09-06 03:57:00,2233E-3,5C000400,-0724,0820,12343,028.2,045.4,0.255,757.2,01.16,0.508
2015-09-06 03:58:00,2236E-3,5C000400,-0724,0820,12332,028.2,045.5,0.256,757.2,01.16,0.508
2015-09-06 03:59:00,2232E-3,5C000400,-0724,0820,12167,028.2,045.5,0.256,757.2,01.16,0.508
2015-09-06 04:00:00,2296E-3,5C000400,-0724,0819,12313,028.2,045.5,0.256,757.2,01.16,0.508
2015-09-06 04:01:00,2145E-3,5C000400,-0724,0820,12364,028.2,045.5,0.256,757.2,01.16,0.508
2015-09-06 04:02:00,2317E-3,5C000400,-0724,0819,12190,028.2,045.4,0.256,757.2,01.16,0.508
2015-09-06 04:03:00,2275E-3,5C000400,-0724,0819,12325,028.1,045.4,0.256,757.2,01.16,0.508
2015-09-06 04:04:00,2234E-3,5C000400,-0724,0820,12337,028.1,045.5,0.256,757.2,01.16,0.508
2015-09-06 04:05:00,2278E-3,5C000400,-0724,0820,12371,028.1,045.5,0.256,757.1,01.16,0.508
2015-09-06 04:06:00,2258E-3,5C000400,-0724,0820,12298,028.1,045.4,0.256,757.1,01.16,0.508
2015-09-06 04:07:00,2308E-3,5C000400,-0724,0820,12334,028.1,045.4,0.256,757.1,01.16,0.508
2015-09-06 04:08:00,2215E-3,5C000400,-0724,0821,12166,028.1,045.5,0.256,757.1,01.16,0.508
2015-09-06 04:09:00,2193E-3,5C000400,-0724,0820,12400,028.0,045.5,0.256,757.2,01.16,0.508
2015-09-06 04:10:00,2287E-3,5C000400,-0724,0820,12305,028.1,045.5,0.256,757.2,01.16,0.508
2015-09-06 04:11:00,2320E-3,5C000400,-0724,0820,12275,028.0,045.4,0.256,757.2,01.16,0.508
2015-09-06 04:12:00,2271E-3,5C000400,-0724,0820,12345,028.0,045.5,0.256,757.2,01.16,0.508
2015-09-06 04:13:00,2212E-3,5C000400,-0724,0821,12309,028.0,045.4,0.256,757.2,01.16,0.508
2015-09-06 04:14:00,2179E-3,5C000400,-0724,0820,12381,028.0,045.4,0.256,757.2,01.16,0.508
2015-09-06 04:15:00,2172E-3,5C000400,-0724,0820,12400,028.0,045.4,0.256,757.2,01.16,0.508
2015-09-06 04:16:00,2350E-3,5C000400,-0724,0820,12178,028.0,045.5,0.256,757.2,01.16,0.508
2015-09-06 04:17:00,2202E-3,5C000400,-0724,0819,12150,027.9,045.5,0.256,757.2,01.16,0.508
2015-09-06 04:18:00,2323E-3,5C000400,-0724,0820,12373,027.9,045.4,0.256,757.2,01.16,0.508
2015-09-06 04:19:00,2203E-3,5C000400,-0724,0820,12336,027.9,045.5,0.256,757.2,01.16,0.508
2015-09-06 04:20:00,2384E-3,5C000400,-0724,0820,12280,027.9,045.4,0.257,757.2,01.16,0.508